Location: Cheching
(60.0667°N, 164.2167°W)
Time: 13:33:42
(UTC+00:00)

NOAA 19 - Pass Details

Date: 21 January 2021
Orbit: 840 x 862 km, 99.2° (Epoch: 01 March)

Event Time Altitude Azimuth Distance (km) Brightness Sun altitude
Rises 03:29:01 0° 139° (SE) 3,433 8.3 -5.6°
Reaches altitude 10° 03:31:26 10° 134° (SE) 2,498 7.5 -5.9°
Maximum altitude 03:36:48 52° 60° (ENE) 1,060 5.4 -6.4°
Drops below altitude 10° 03:42:09 10° 345° (NNW) 2,500 7.5 -7.0°
Sets 03:44:34 0° 341° (NNW) 3,437 8.3 -7.3°
